Regional Weather Roundup
Issued by NWS

Home | Current Version | Previous Version | Text Only | Print | Product List | Glossary On
Versions: 1 2 3 4 5 6 7 8 9 10 11 12 13 14 15 16 17 18 19 20 21 22 23 24 25 26 27 28 29 30 31 32 33 34 35 36 37 38 39 40 41 42 43 44 45 46 47 48 49 50
123
ASUS45 KABQ 010110
RWRNM
NEW MEXICO REGIONAL WEATHER ROUNDUP
NATIONAL WEATHER SERVICE ALBUQUERQUE NM
700 PM MDT SAT APR 30 2016

NOTE: "FAIR" MEANS FEW OR NO CLOUDS BELOW 12,000 FEET AGL WITH NO
       SIGNIFICANT WEATHER OR OBSTRUCTIONS TO VISION.

      THIS PRODUCT IS RELEASED AS TWO VERSIONS.  ONE VERSION NEAR
      THE TOP OF THE HOUR CONTAINING PRELIMINARY DATA FROM ALBUQUERQUE
      AND OTHER STATIONS.  A FINAL VERSION WITH ADDITIONAL DATA IS
      ISSUED ABOUT 10 MINUTES AFTER THE HOUR.

NMZ501-503-504-510>518-010200-
NORTHWEST PLATEAU/NORTHCENTRAL MOUNTAINS

CITY           SKY/WX    TMP DP  RH WIND       PRES   REMARKS
FARMINGTON     FAIR      52  31  44 W15       29.83S
LOS ALAMOS     CLOUDY    48  32  53 SW12      29.91R
SANTA FE       FAIR      56  27  32 N5        29.85R
TAOS           FAIR      52  27  37 SE9       29.88R
ANGEL FIRE     MOCLDY    36  32  84 E9G21     29.97R WCI  29

$$
NMZ402-403-502-505>509-010200-
WESTCENTRAL MOUNTAINS/SOUTHWEST MOUNTAINS

CITY           SKY/WX    TMP DP  RH WIND       PRES   REMARKS
GALLUP         LGT RAIN  44  37  76 NE10      29.87R
GRANTS         CLOUDY    46  37  69 SE3       29.90R
SILVER CITY      N/A     64  21  19 SW14G36   29.77F

$$
NMZ407-409-411-412-010200-
SOUTHERN DESERTS

CITY           SKY/WX    TMP DP  RH WIND       PRES   REMARKS
LORDSBURG      CLOUDY    70  23  17 W14G25    29.69S
DEMING         FAIR      75  17  11 W13G20    29.69F
LAS CRUCES     FAIR      72  14  11 SE9       29.73S
HOLLOMAN AFB   FAIR      73  20  13 S12       29.72F
ALAMOGORDO     FAIR      72  19  14 S10       29.75S
T OR C         MOCLDY    70  20  15 SW14      29.72S

$$
NMZ519>523-010200-
CENTRAL VALLEYS/CENTRAL HIGHLANDS

CITY           SKY/WX    TMP DP  RH WIND       PRES   REMARKS
ALBUQUERQUE    LGT RAIN  51  44  77 S22G36    29.87R
DOUBLE EAGLE   MOCLDY    55  32  41 S21G29    29.87R
MORIARTY ARPT  LGT RAIN  54  28  36 N5        29.90R
CLINES CORNERS CLOUDY    52  27  38 S18       29.89R
BELEN          MOCLDY    56  39  52 N13       29.84R
SOCORRO        CLOUDY    64  27  24 W3        29.80R

$$
NMZ524>526-539-540-010200-
SOUTHCENTRAL MOUNTAINS

CITY           SKY/WX    TMP DP  RH WIND       PRES   REMARKS
RUIDOSO          N/A     57  23  26 E9        29.90S

$$
NMZ527>531-010200-
NORTHEAST HIGHLANDS/NORTHEAST PLAINS

CITY           SKY/WX    TMP DP  RH WIND       PRES   REMARKS
LAS VEGAS      CLOUDY    43  37  79 NE20      29.93R
RATON          CLOUDY    36  29  75 N15       30.00R WCI  27
CLAYTON        CLOUDY    44  29  55 N21G28    29.98R

$$
NMZ532>537-010200-
EASTCENTRAL PLAINS

CITY           SKY/WX    TMP DP  RH WIND       PRES   REMARKS
TUCUMCARI      FAIR      59  35  40 NE16G25   29.88R
CANNON AFB     NOT AVBL
CLOVIS AIRPORT MOCLDY    59  41  51 NE14      29.88R

$$
NMZ028-029-538-010200-
SOUTHEAST PLAINS

CITY           SKY/WX    TMP DP  RH WIND       PRES   REMARKS
ROSWELL        FAIR      73  28  18 NE7       29.73R
ARTESIA        FAIR      75  25  15 S12       29.73R
CARLSBAD       FAIR      77  19  11 SW18      29.72R
HOBBS          FAIR      75  21  13 S12       29.78R


$$




USA.gov is the U.S. government's official web portal to all federal, state and local government web resources and services.